This demonstration page uses our WeatherBlox Daily Observations layout. Learn more.

Left ArrowRight Arrow

Hourly Observations for March 2, 2018

Temp ( °F °C ) Dew Point ( °F °C ) Humidity (%) Winds ( mph kmh ) Pressure ( in mb ) Visibility ( mi km ) Precip ( " mm )
12:15 am 00:15 Cloudy 46 8 36 2 66 66 WNW 26 43 29.50 999 10 16 0.01 0.25
12:35 am 00:35 Cloudy 46 8 36 2 66 66 WNW 26 43 29.50 999 10 16 0.01 0.25
12:55 am 00:55 Cloudy 45 7 34 1 66 66 NW 22 35 29.50 999 10 16 0.01 0.25
1:15 am 01:15 Mostly Cloudy 45 7 34 1 66 66 WNW 21 33 29.53 1000 10 16 N/A
1:35 am 01:35 Mostly Cloudy 45 7 32 undefined 61 61 NW 21 33 29.53 1000 10 16 N/A
1:55 am 01:55 Mostly Cloudy 43 6 32 undefined 66 66 NW 32 52 29.53 1000 10 16 N/A
2:15 am 02:15 Mostly Cloudy 43 6 32 undefined 66 66 WNW 30 48 29.53 1000 10 16 N/A
2:35 am 02:35 Cloudy 43 6 32 undefined 66 66 WNW 40 65 29.53 1000 10 16 N/A
2:55 am 02:55 Cloudy 43 6 32 undefined 66 66 NW 30 48 29.53 1000 10 16 N/A
3:15 am 03:15 Cloudy 43 6 32 undefined 66 66 WNW 24 39 29.56 1001 10 16 N/A
3:35 am 03:35 Cloudy 41 5 32 undefined 70 70 WNW 22 35 29.59 1002 10 16 N/A
3:55 am 03:55 Cloudy 41 5 30 -1 66 66 NW 35 56 29.59 1002 10 16 N/A
4:15 am 04:15 Cloudy 41 5 30 -1 66 66 NW 35 56 29.53 1000 10 16 N/A
4:35 am 04:35 Cloudy 41 5 30 -1 66 66 NW 32 52 29.59 1002 10 16 N/A
4:55 am 04:55 Cloudy 41 5 30 -1 66 66 NW 29 46 29.59 1002 10 16 N/A
5:15 am 05:15 Cloudy 41 5 28 -2 61 61 NW 35 56 29.59 1002 10 16 N/A
5:35 am 05:35 Cloudy 41 5 28 -2 61 61 NW 44 70 29.59 1002 10 16 N/A
5:55 am 05:55 Cloudy 41 5 30 -1 66 66 NW 35 56 29.59 1002 10 16 N/A
6:15 am 06:15 Cloudy 39 4 32 undefined 75 75 NW 30 48 29.62 1003 10 16 N/A
6:35 am 06:35 Cloudy 39 4 30 -1 70 70 NNW 31 50 29.62 1003 10 16 N/A
6:55 am 06:55 Cloudy 41 5 30 -1 66 66 NW 35 56 29.65 1004 10 16 N/A
7:15 am 07:15 Cloudy 39 4 30 -1 70 70 NW 39 63 29.68 1005 10 16 N/A
7:35 am 07:35 Cloudy 39 4 28 -2 65 65 NNW 36 57 29.68 1005 10 16 N/A
7:55 am 07:55 Cloudy 41 5 28 -2 61 61 NNW 36 57 29.71 1006 10 16 N/A
8:15 am 08:15 Cloudy 41 5 28 -2 61 61 NW 39 63 29.71 1006 10 16 N/A
8:35 am 08:35 Cloudy 41 5 28 -2 61 61 NNW 35 56 29.74 1007 10 16 N/A
8:55 am 08:55 Cloudy 41 5 30 -1 66 66 NNW 26 43 29.74 1007 10 16 N/A
9:15 am 09:15 Cloudy 41 5 28 -2 61 61 NNW 29 46 29.77 1008 10 16 N/A
9:35 am 09:35 Cloudy 41 5 28 -2 61 61 NNW 37 59 29.77 1008 10 16 N/A
9:55 am 09:55 Cloudy 41 5 28 -2 61 61 NW 41 67 29.77 1008 10 16 N/A
10:15 am 10:15 Cloudy 41 5 30 -1 66 66 NNW 30 48 29.80 1009 10 16 N/A
10:35 am 10:35 Cloudy 41 5 28 -2 61 61 NNW 25 41 29.80 1009 10 16 N/A
10:55 am 10:55 Cloudy 41 5 30 -1 66 66 NNW 35 56 29.80 1009 10 16 N/A
11:15 am 11:15 Cloudy 41 5 28 -2 61 61 NNW 32 52 29.80 1009 10 16 N/A
11:35 am 11:35 Cloudy 43 6 28 -2 57 57 NW 38 61 29.83 1010 10 16 N/A
11:55 am 11:55 Cloudy 43 6 28 -2 57 57 NW 38 61 29.83 1010 10 16 N/A
12:15 pm 12:15 Cloudy 43 6 28 -2 57 57 NNW 44 70 29.80 1009 10 16 N/A
12:35 pm 12:35 Cloudy 43 6 28 -2 57 57 NW 37 59 29.80 1009 10 16 N/A
12:55 pm 12:55 Cloudy 45 7 28 -2 53 53 NNW 37 59 29.83 1010 10 16 N/A
1:15 pm 13:15 Cloudy 43 6 28 -2 57 57 NNW 43 69 29.83 1010 10 16 N/A
1:35 pm 13:35 Cloudy 43 6 28 -2 57 57 NNW 30 48 29.83 1010 10 16 N/A
1:55 pm 13:55 Mostly Cloudy 43 6 28 -2 57 57 NNW 32 52 29.83 1010 10 16 N/A
2:15 pm 14:15 Mostly Cloudy 43 6 28 -2 57 57 NNW 35 56 29.85 1011 10 16 N/A
2:35 pm 14:35 Cloudy 45 7 28 -2 53 53 NNW 35 56 29.85 1011 10 16 N/A
2:55 pm 14:55 Cloudy 45 7 28 -2 53 53 NNW 26 43 29.85 1011 10 16 N/A
3:15 pm 15:15 Cloudy 46 8 28 -2 50 50 NNW 31 50 29.83 1010 10 16 N/A
3:35 pm 15:35 Cloudy 46 8 27 -3 46 46 N 35 56 29.83 1010 10 16 N/A
3:55 pm 15:55 Cloudy 45 7 27 -3 49 49 NNW 35 56 29.88 1012 10 16 N/A
4:15 pm 16:15 Mostly Cloudy 45 7 25 -4 46 46 N 35 56 29.88 1012 10 16 N/A
4:35 pm 16:35 Partly Cloudy 46 8 27 -3 46 46 NNW 37 59 29.91 1013 10 16 N/A
4:55 pm 16:55 Sunny 45 7 25 -4 46 46 N 25 41 29.91 1013 10 16 N/A
5:15 pm 17:15 Sunny 45 7 23 -5 42 42 NNW 41 67 29.91 1013 10 16 N/A
5:35 pm 17:35 Sunny 45 7 23 -5 42 42 N 43 69 29.91 1013 10 16 N/A
5:55 pm 17:55 Sunny 43 6 23 -5 46 46 NNW 29 46 29.94 1014 10 16 N/A
6:15 pm 18:15 Clear 43 6 23 -5 46 46 NNW 37 59 29.97 1015 10 16 N/A
6:35 pm 18:35 Clear 43 6 23 -5 46 46 NNW 32 52 29.97 1015 10 16 N/A
6:55 pm 18:55 Partly Cloudy 41 5 23 -5 49 49 NNW 40 65 29.97 1015 10 16 N/A
7:15 pm 19:15 Partly Cloudy 41 5 23 -5 49 49 NNW 24 39 30.00 1016 10 16 N/A
7:35 pm 19:35 Mostly Cloudy 41 5 23 -5 49 49 N 33 54 30.00 1016 10 16 N/A
7:55 pm 19:55 Mostly Cloudy 41 5 23 -5 49 49 NNW 39 63 30.00 1016 10 16 N/A
8:15 pm 20:15 Cloudy 41 5 23 -5 49 49 N 23 37 30.03 1017 10 16 N/A
8:35 pm 20:35 Cloudy 41 5 23 -5 49 49 NNW 31 50 30.03 1017 10 16 N/A
8:55 pm 20:55 Cloudy 41 5 23 -5 49 49 N 28 44 30.03 1017 10 16 N/A
9:15 pm 21:15 Mostly Cloudy 41 5 23 -5 49 49 NNW 33 54 30.06 1018 10 16 N/A
9:35 pm 21:35 Mostly Cloudy 41 5 23 -5 49 49 NNW 29 46 30.06 1018 10 16 N/A
9:55 pm 21:55 Cloudy 39 4 23 -5 52 52 NNW 26 43 30.06 1018 10 16 N/A
10:15 pm 22:15 Cloudy 39 4 23 -5 52 52 NNW 30 48 30.09 1019 10 16 N/A
10:30 pm 22:30 Cloudy 39 4 23 -5 52 52 NNW 26 43 30.09 1019 10 16 N/A
10:55 pm 22:55 Cloudy 37 3 25 -4 60 60 N 22 35 30.09 1019 10 16 N/A
11:15 pm 23:15 Cloudy 37 3 25 -4 60 60 N 24 39 30.09 1019 10 16 N/A
11:35 pm 23:35 Cloudy 37 3 25 -4 60 60 N 20 31 30.09 1019 10 16 N/A
11:55 pm 23:55 Partly Cloudy 37 3 27 -3 65 65 NNW 29 46 30.09 1019 10 16 N/A

Powered by AerisWeather